www.pogodaiklimat.ru

Погода и климат >> Архив погоды >> Антарктида >> Эсперанса


ПОГОДА на Эсперансе

  • Прогноз погоды на Эсперансе
  • Монитор погоды на Эсперансе

АРХИВ ПОГОДЫ на Эсперансе

Время (UTC), дата Ветер
(напр.,м/с)
 
Видим.   Явления Облачность Т
(С)
Тd
(С)
f
(%)
Тe
(С)
Тes
(С)
Комфортность P
(гПа)
Po
(гПа)
Тmin
(С)
Tmax
(С)
R
(мм)
R24
(мм)
S
(см)
15 11.02 В 5 20 км 4/0
[Cs]
+3.0 -8.4 43 -1 +4 993.0 990.0
18 11.02 СВ 3 20 км 9/0
[Cs]
+2.2 -4.5 61 -2 +3 991.0 988.0
21 11.02 СВ 3 20 км 9/0
[Ac As]
+1.6 -2.7 73 -3 -2 989.2 986.2
00 12.02 ЮЗ 2 20 км 6/0
[Ac As Cs]
+0.6 -5.1 66 -2 -2 988.2 985.2 +0.6 +3.0
03 12.02 В 2 20 км 4/0
[Cs]
-0.4 -7.0 61 -4 -4 985.6 982.6
06 12.02 Ю 1 20 км 5/0
[Cs]
-1.0 -4.2 79 -3 -3 983.9 981.0
09 12.02 штиль 0 20 км 9/0
[Ac As Cs]
+0.1 -4.6 71 -1 -1 980.7 977.8
12 12.02 В 2 20 км 3/1 600 м
[Sc Ac trans]
+4.4 -4.5 52 +3 +6 978.5 975.6 -1.2 +4.4
15 12.02 С 3 20 км 3/0
[Ci fib]
+6.2 -3.3 51 +4 +10 977.9 975.0
18 12.02 С 2 20 км 8/0
[Cs]
+4.5 -1.8 64 +2 +8 977.5 974.6
21 12.02 С 2 10 км 10/0
[As trans Cs]
+2.8 +0.1 82 -0 +1 976.6 973.7
00 13.02 ЮЗ 2 10 км 9/3 600 м
[Sc Ac As Cs]
+0.6 -1.7 85 -3 -3 976.7 973.8 +0.6 +6.4
03 13.02 Ю 5 10 км 9/3 600 м
[Sc Ac As]
+0.4 -3.6 74 -5 -5 978.0 975.0
06 13.02 В 4 10 км 9/0
[Ac As Cs]
-0.6 -2.4 88 -6 -6 980.4 977.4
09 13.02 СЗ 1 1500 м дымка 9/3 60 м
[St Ac As Cs]
-1.0 -1.7 95 -3 -3 981.3 978.4
12 13.02 СВ 3 1500 м дымка 10/10 60 м
[St]
+0.2 -1.4 89 -4 -4 981.2 978.2 -1.0 +1.1
15 13.02 В 1 10 км 9/1 240 м
[Sc As trans]
+4.2 -1.2 68 +3 +7 979.4 976.5
18 13.02 З 12 20 км 5/1 300 м
[Sc Ac lent Cs]
+2.6 -2.6 69 -5 -5 976.9 974.0
21 13.02 С 6 900 м слаб. снег {туман} туман 10/8 60 м
[Frnb As op]
+0.4 +0.5 100 -6 -6 975.7 972.8
00 14.02 С 5 900 м слаб. снег {туман} туман 10/8 60 м
[Frnb As op]
0.0 -0.6 96 -6 -6 971.8 968.9 0.0 +5.2 1
03 14.02 С 1 800 м снег {туман} туман 10/8 60 м
[Frnb As op]
+0.1 -0.5 96 -2 -2 968.7 965.8
06 14.02 штиль 0 800 м снег {туман} туман 10/8 60 м
[Frnb As op]
0.0 -0.3 98 -1 -1 967.0 964.1 5
09 14.02 Ю 15 1500 м слаб. снег {метель} 10/8 60 м
[Frnb As op]
-3.0 -4.0 93 -14 -14 966.5 963.6
12 14.02 Ю 15 500 м слаб. снег {метель} 10/8 60 м
[Frnb As op]
-3.6 -5.4 87 -14 -14 968.0 965.0 -3.6 +0.1 0.3 6
15 14.02 Ю 14 1000 м в посл. час снег {метель} туман 9/8 60 м
[Frnb As op]
-2.4 -6.0 76 -12 -12 969.3 966.4
18 14.02 Ю 14 1000 м слаб. снег {метель} туман 10/9 60 м
[Frnb As op]
-3.2 -7.0 75 -14 -14 970.6 967.7 0.0
21 14.02 Ю 13 1000 м слаб. снег {метель} туман 9/8 60 м
[Frnb As op]
-2.4 -4.6 85 -12 -12 972.3 969.4
00 15.02 Ю 13 2000 м позёмок {снег} 10/6 60 м
[Frnb Ac As]
-2.9 -4.9 86 -13 -13 974.2 971.2 -4.1 -2.1 0.0
03 15.02 Ю 12 2000 м слаб. снег {метель} туман 10/8 60 м
[Frnb Ac As]
-3.2 -4.9 88 -13 -13 975.7 972.6
06 15.02 Ю 10 3000 м слаб. снег {метель} 10/8 60 м
[Frnb Ac As]
-2.8 -4.4 89 -12 -12 978.2 975.2 0.0
09 15.02 Ю 10 4000 м слаб. снег 9/6 60 м
[Frnb Ac As]
-2.8 -4.4 89 -12 -12 980.9 977.8
12 15.02 Ю 7 4000 м слаб. снег 6/6 60 м
[Frnb]
-2.0 -3.5 89 -10 -9 983.6 980.6 -3.2 -2.0 0.0
15 15.02 ЮЗ 5 10 км {снег} 9/9 60 м
[St]
-1.2 -3.1 87 -8 -7 985.6 982.6
18 15.02 В 3 10 км {снег} 9/9 240 м
[St]
+0.2 -1.4 89 -5 -4 987.0 984.0 0.0
21 15.02 С 2 10 км 9/9 90 м
[St]
-0.2 -1.9 88 -3 -3 987.2 984.2
00 16.02 С 3 5000 м слаб. снег туман 10/9 60 м
[Frnb Ac As]
-0.8 -1.5 95 -6 -6 987.1 984.1 -2.0 +0.6 0.0
03 16.02 С 3 800 м слаб. дождь со снегом туман 10/10 60 м
[Frnb]
-0.9 -1.3 97 -6 -6 985.6 982.6
06 16.02 С 6 900 м туман {снег, дождь} туман 10/10 60 м
[Frnb]
-0.6 -0.7 99 -8 -8 983.3 980.2 0.0
09 16.02 СВ 5 5000 м в посл. час туман туман 9/9 60 м
[St]
-0.7 -0.8 99 -7 -7 981.4 978.4
12 16.02 СВ 4 5000 м дымка {туман} 9/9 120 м
[St]
-0.5 -0.8 98 -6 -6 981.0 978.0 -0.9 -0.5 0.0
15 16.02 С 3 6000 м осадки на расстоянии 9/9 120 м
[St]
0.0 -1.1 92 -5 -4 981.4 978.4
18 16.02 В 7 6000 м осадки на расстоянии 10/6 120 м
[St Ac As]
+0.1 -0.7 94 -7 -7 982.6 979.6
21 16.02 В 6 10 км 9/3 540 м
[Sc Ac As]
-0.2 -1.9 88 -7 -7 984.9 981.8
00 17.02 ЮВ 4 10 км 8/4 120 м
[St Cs]
-2.0 -3.5 89 -8 -8 987.1 984.1 -2.0 +0.4
03 17.02 ЮВ 4 5000 м дымка 6/3 120 м
[St Cs]
-2.4 -3.3 94 -8 -8 988.3 985.3
06 17.02 ЮВ 3 20 км 4/3 120 м
[St Cs]
-2.8 -4.4 89 -8 -8 989.2 986.2
09 17.02 ЮВ 2 20 км 4/0
[Ac As Ci fib]
-4.0 -6.6 82 -8 -8 990.1 987.0
12 17.02 ЮВ 2 20 км 9/9 240 м
[Sc]
-1.6 -4.3 82 -5 -4 990.8 987.8 -4.0 -1.6
15 17.02 В 4 20 км 9/4 300 м
[Sc Ac und]
-0.4 -6.4 64 -5 -4 991.3 988.2
18 17.02 В 4 20 км 9/3 150 м
[St Ac und]
0.0 -2.9 81 -5 -4 992.0 989.0
21 17.02 В 5 20 км 8/5 150 м
[St Ac und]
-2.4 -4.6 85 -9 -9 993.1 990.1
00 18.02 ЮВ 5 20 км 9/9 90 м
[St]
-3.8 -4.9 92 -11 -11 994.3 991.3 -4.0 0.0
03 18.02 ЮВ 8 2000 м слаб. снег туман 10/10 60 м
[Frnb]
-4.4 -5.0 96 -13 -13 995.0 992.0
06 18.02 Ю 7 2000 м слаб. снег туман 10/10 60 м
[Frnb]
-5.0 -6.3 91 -14 -14 995.5 992.5 0.0
09 18.02 Ю 7 1200 м слаб. снег туман 10/10 60 м
[Frnb]
-5.2 -6.2 93 -14 -14 996.2 993.2

 

Местоположение метеостанции Эсперанса (Антарктида): широта -63.40 долгота -56.98 высота над уровнем моря 24 м.

В архиве по умолчанию представлена погода на Эсперансе за последнюю неделю. Архивные данные за месяц целиком и за предыдущие месяцы, начиная с января 2011 года, Вы можете получить, выбрав интересующий диапазон дат из раскрывающегося списка и нажав кнопку "Ввод!".


*Определитесь, кто Вы:
робот инопланетянин человек

Внимание! Время в таблицах - всемирное. Для получения местного времени необходимо прибавить поправку, которая равна 0 ч.

Смотрите также архив погоды в соседних городах и на ближайших метеорологических станциях:

Погода на Бернардо О`Хиггинс (Антарктида) (47 км)
Погода на Марамбио (Антарктида) (93 км)
Погода на Carlini Base (Антарктида) (155 км)
Погода на King Sejong (Антарктида) (160 км)
Погода на Dinamet-Уругвай (Антарктида) (165 км)
Погода на Беллинсгаузене (Антарктида) (166 км)
Погода на Чанчэн (Антарктида) (166 км)
Погода на Captain Arturo Prat Base (Антарктида) (169 км)
Погода на Frei Chi-Base (Антарктида) (170 км)
Погода на Острове Хуана Карлоса (Антарктида) (191 км)

Пояснения к столбцам:

Ветер - указаны скорость ветра в м/с - средняя за 10 мин, порывы в срок и между сроками (в фигурных скобках) и направление, откуда дует ветер: С - северный, СВ - северо-восточный, В - восточный, ЮВ - юго-восточный, Ю - южный, ЮЗ - юго-западный, З - западный, СЗ - северо-западный.
Видимость - горизонтальная дальность видимости в метрах или километрах. При видимости от 1 до 10 км при отсутствии осадков обычно наблюдается дымка, при ухудшении видимости до 1 км и менее - туман. В сухую погоду видимость может ухудшаться дымом, пылью или мглою.
Явления - указаны атмосферные явления, наблюдавшиеся в срок или в последний час перед сроком; фигурными скобками обозначены явления, наблюдавшиеся между сроками (за 1-3 часа до срока); квадратными скобками обозначены град или гололедные отложения с указанием их диаметра в мм.
Облачность - указаны через наклонную черту общая и нижняя облачность в баллах и высота нижней границы облаков в метрах; квадратными скобками обозначены формы облаков: Ci - перистые, Cs - перисто-слоистые, Cc - перисто-кучевые, Ac - высококучевые, As - высокослоистые, Sc - слоисто-кучевые, Ns - слоисто-дождевые, Cu - кучевые, Cb - кучево-дождевые. Подробнее классификацию облаков см. в Атласе облаков (PDF).
T - Температура воздуха - температура, измеренная на высоте 2 м над землей.
Td - Температура точки росы - температура, при понижении до которой содержащийся в воздухе водяной пар достигнет насыщения.
f - Относительная влажность воздуха - влажноcть воздуха, измеренная на высоте 2 м над землей.
Te - Эффективная температура - температура, которую ощущает одетый по сезону человек в тени. Характеристика душности погоды. При расчете учитывается влияние влажности воздуха и скорости ветра на теплоощущения человека.
Tes - Эффективная температура на солнце - температура, которую ощущает человек, с поправкой на солнечный нагрев. Характеристика знойности погоды. Зависит от высоты солнца над горизонтом, облачности и скорости ветра. Ночью, в пасмурную погоду, а также при ветре 12 м/с и более поправка равна нулю.
P - Атмосферное давление - приведенное к уровню моря атмосферное давление.
Po - Атмосферное давление - измеренное на уровне метеостанции атмосферное давление.
Tmin - Минимальная температура - минимум температуры воздуха на высоте 2 м над землей.
Tmax - Максимальная температура - максимум температуры воздуха на высоте 2 м над землей.
R - Количество осадков - Количество выпавших осадков за период времени, мм. При наведении курсора мыши на число - период времени, за который выпало указанное количество осадков.
R24 - Количество осадков - Количество выпавших осадков за 24 часа, мм.
S - Снежный покров - Высота снежного покрова, см. При наведении курсора мыши на число - состояние снежного покрова и степень покрытия местности в баллах.